Back to catalog

STARLINK-35565

AliveCommunicationsVLEO
NORAD 66803·PAYLOAD·🇺🇸 United States

Launched Dec 1, 2025 from Cape Canaveral Space Force Station

Loading…

Next Passes (next 24 hours)

TLE

FreshSource: CelesTrak SupGP

Epoch: Sep 14, 2026, 14:49 UTC

1 66803C 25278N   26257.61784722  .00034304  00000+0  12425-2 0  2572
2 66803  43.0015 127.6656 0001523 260.6289 335.2257 15.27561967    12

Track STARLINK-35565 in real time with AllMySat

Download on the App Store